sat.trackr.live / text

‹ back to catalog

STARLINK-11442 [DTC]

NORAD 62885 · 2025-024G

PAYLOAD ACTIVE UNKNOWN

§ Identity

Operator
Country
US
Launch date
2025-02-04
Launch site
AFETR
Launch vehicle
Mass (kg)
RCS (m²)

Purposes: comms

External: N2YO · Heavens-Above · Gunter

§ Orbital elements

Epoch: 2026-05-25T04:45:20.218752Z

Period
91.67 min
Inclination
43.0001°
Eccentricity
0.0001569
Mean motion
15.70923029 rev/d
Perigee alt
355.2 km
Apogee alt
357.3 km
Semi-major
6,734.4 km
B*
2.1170e-3
RAAN
79.9051°
Arg perigee
245.3185°
Mean anomaly
114.7519°
Rev number
7,550

§ Raw data

STARLINK-11442 [DTC]1 62885U 25024G   26145.19815068  .00281572  00000+0  21170-2 0  99952 62885  43.0001  79.9051 0001569 245.3185 114.7519 15.70923029 75502

JSON: /api/v1/satellites/62885 · /tle

For live sub-satellite position, see the globe view (requires WebGL).

§ Visibility from observer

Set your observer location to see the next 7 days of passes ≥ 10°. The values pass through the URL so the page stays shareable.

No JS? Fill the form by hand. The geolocation button needs JavaScript.